ARIANE 5 DEB [SYLDA]

Last updated on Dec. 11, 2019, 12:02 a.m. UTC

1 44803U 19080D   19343.77587486  .00006873  00000-0  24412-2 0  9998
2 44803   4.9655 208.6880 7273423 188.7380 142.8810  2.28472238   298
UTC
Height (km)
Latitude
Longitude
Inclination
Orbital Period
UTC large
Height (km)
Speed (km/s)
/
Latitude / Longitude
Inclination (degrees)
Orbital Period (minutes)
Azimuth
Elevation
Range (km)
Doppler Factor
iOS Compass Heading
iOS Angle

Next 30 passes for location: Hong Kong

Rise time Rise Azimuth (degrees) Set time Set Azimuth (degrees) Duration Max altitude (degrees)

No matching passes for this satellites